RSW-01 (49112 NORAD) Tracking and Keplerian Element Data

This shows tracking and keplerian element data for the satellite.

Feedback or suggestion? Click here.




ElementValue
Catalog49112
NameRSW-01
Epoch Orbit343
Epoch Day262.069375
Epoch Year2021
RAAN56.7634
Inclination86.4053
Eccentricity0.0014054
Argument of Perigee228.4922
Mean Anonmoly131.5017
Mean Motion13.42698148
Decay Rate3.6E-07
L11 49112U 21076A 21262.06937500 .00000036 00000-0 37082-4 0 9999
L22 49112 86.4053 56.7634 0014054 228.4922 131.5017 13.42698148 3433

Live tracking and technical data element details for RSW-01 (NORAD 49112). RSW-01 can be tracked NOW for your location showing map with azimuth and elevation plus other details from your city location.

Track the satellite on the map from your city or location and see movement details for azimuth, elevation, latitude, longitude, range, height, and movement on the map or in text.







IsCatalogInMostPopularTable: catalog: 49112, numindb: 7
Update: records affected: 1



GetName: 49112 RSW-01

Hit Count: updated at: Fri, 24 Sep 2021 18:27:21 GMT